Погода в Богатыре

Россия / Самарская область     53°25′45″N   49°57′47″E
темп.,
°C
ветер,
м/с
пор.,
м/с
влажн.,
%
обл.,
%
осадки,
мм/ч
давл.,
гПа
погр.,
м
9 мая, вс
вс901:00+12ююв3360100 0.0 101445
04:00+12ююв336648 0.0 101433
07:00+14ююв38635 0.0 1014259
10:00+20ююв584664 0.0 1013859
13:00+20ю474889 0.0 1014812
16:00+23ю4639100 0.0 10132317
19:00+20юв225457 0.0 101332
22:00+17ююв2261100 0.0 101420
10 мая, пн
пн1001:00+15вюв237199 0.0 101429
04:00+13вюв3374100 0.0 101540
07:00+15вюв31067100 0.0 1016273
10:00+20юв4845100 0.0 1017629
13:00+23вюв6737100 0.0 10171901
16:00+24вюв673645 0.0 10182293
19:00+20всв51052100 0.0 1019361
22:00+15всв356688 0.0 102098
11 мая, вт
вт1101:00+14всв2366100 0.0 102133
04:00+13в2272100 0.0 102227
07:00+15в21072100 0.0 1023345
10:00+19вюв4752100 0.0 1025573
13:00+22в5744100 0.0 10251261
16:00+23в673913 0.0 10252012
19:00+20в510515 0.0 1025374
22:00+16вюв385994 0.0 1026133
12 мая, ср
ср1201:00+14юв126298 0.0 102713
04:00+14в237279 0.0 102734
07:00+16вюв256979 0.0 1028178
10:00+20вюв5747100 0.0 10281022
13:00+23вюв573694 0.0 10281980
16:00+23юв5736100 0.0 10272161
19:00+20юв3649100 0.0 1027162
22:00+16вюв2257100 0.0 102715
13 мая, чт
чт1301:00+14вюв226174 0.0 102726
04:00+13в236256 0.0 102843
07:00+15вюв276022 0.0 1028215
10:00+21вюв58425 0.0 1028771
13:00+24юв573382 0.0 10271672
16:00+25юв56315 0.0 10261839
19:00+22вюв374748 0.0 1026147
22:00+17юв225644 0.0 102713